owner,sensor,date,latitude,longitude,vertical_datum,sea_water_practical_salinity,qcFlag 
SCCF RECON,ioos:station:SCCF:12:1,2010-01-01T00:00:00Z,26.4966,-82.1479,2.39,32.99,1111122 
SCCF RECON,ioos:station:SCCF:12:1,2010-01-01T01:00:00Z,26.4966,-82.1479,2.47,33.49,1111122 
SCCF RECON,ioos:station:SCCF:12:1,2010-01-01T02:00:00Z,26.4966,-82.1479,2.599,33.52,1111122 
SCCF RECON,ioos:station:SCCF:12:1,2010-01-01T03:00:00Z,26.4966,-82.1479,2.72,33.5,1111122 
SCCF RECON,ioos:station:SCCF:12:1,2010-01-01T04:00:00Z,26.4966,-82.1479,2.79,33.54,1111122 
SCCF RECON,ioos:station:SCCF:12:1,2010-01-01T05:00:00Z,26.4966,-82.1479,2.81,33.58,1111122 
SCCF RECON,ioos:station:SCCF:12:1,2010-01-01T06:00:00Z,26.4966,-82.1479,2.75,33.57,1111122 
SCCF RECON,ioos:station:SCCF:12:1,2010-01-01T07:00:00Z,26.4966,-82.1479,2.63,33.14,1111122 
SCCF RECON,ioos:station:SCCF:12:1,2010-01-01T08:00:00Z,26.4966,-82.1479,2.473,33.45,1111122 
SCCF RECON,ioos:station:SCCF:12:1,2010-01-01T09:00:00Z,26.4966,-82.1479,2.31,33.51,1111122 
SCCF RECON,ioos:station:SCCF:12:1,2010-01-01T10:00:00Z,26.4966,-82.1479,2.148,33.52,1111122 
SCCF RECON,ioos:station:SCCF:12:1,2010-01-01T11:00:00Z,26.4966,-82.1479,1.995,33.53,1111122 
SCCF RECON,ioos:station:SCCF:12:1,2010-01-01T12:00:00Z,26.4966,-82.1479,1.87,33.21,1111122 
SCCF RECON,ioos:station:SCCF:12:1,2010-01-01T13:00:00Z,26.4966,-82.1479,1.77,33.45,1111122 
SCCF RECON,ioos:station:SCCF:12:1,2010-01-01T14:00:00Z,26.4966,-82.1479,1.78,33.42,1111122 
SCCF RECON,ioos:station:SCCF:12:1,2010-01-01T15:00:00Z,26.4966,-82.1479,1.95,33.34,1111122 
SCCF RECON,ioos:station:SCCF:12:1,2010-01-01T16:00:00Z,26.4966,-82.1479,2.122,33.21,1111122 
SCCF RECON,ioos:station:SCCF:12:1,2010-01-01T17:00:00Z,26.4966,-82.1479,2.31,32.98,1111122 
SCCF RECON,ioos:station:SCCF:12:1,2010-01-01T18:00:00Z,26.4966,-82.1479,2.465,32.94,1111122 
SCCF RECON,ioos:station:SCCF:12:1,2010-01-01T19:00:00Z,26.4966,-82.1479,2.51,32.85,1111122 
SCCF RECON,ioos:station:SCCF:12:1,2010-01-01T20:00:00Z,26.4966,-82.1479,2.52,32.54,1111122 
SCCF RECON,ioos:station:SCCF:12:1,2010-01-01T21:00:00Z,26.4966,-82.1479,2.433,32.32,1111122 
SCCF RECON,ioos:station:SCCF:12:1,2010-01-01T22:00:00Z,26.4966,-82.1479,2.294,32.31,1111122 
SCCF RECON,ioos:station:SCCF:12:1,2010-01-01T23:00:00Z,26.4966,-82.1479,2.193,32.31,1111122 
SCCF RECON,ioos:station:SCCF:12:1,2010-01-02T00:00:00Z,26.4966,-82.1479,2.155,32.52,1111122 
SCCF RECON,ioos:station:SCCF:12:1,2010-01-02T01:00:00Z,26.4966,-82.1479,2.177,32.93,1111122 
SCCF RECON,ioos:station:SCCF:12:1,2010-01-02T02:00:00Z,26.4966,-82.1479,2.232,32.94,1111122 
SCCF RECON,ioos:station:SCCF:12:1,2010-01-02T03:00:00Z,26.4966,-82.1479,2.36,32.82,1111122 
SCCF RECON,ioos:station:SCCF:12:1,2010-01-02T04:00:00Z,26.4966,-82.1479,2.452,32.74,1111122 
SCCF RECON,ioos:station:SCCF:12:1,2010-01-02T05:00:00Z,26.4966,-82.1479,2.509,32.84,1111122 
SCCF RECON,ioos:station:SCCF:12:1,2010-01-02T06:00:00Z,26.4966,-82.1479,2.53,33.04,1111122 
SCCF RECON,ioos:station:SCCF:12:1,2010-01-02T07:00:00Z,26.4966,-82.1479,2.476,33.28,1111122 
SCCF RECON,ioos:station:SCCF:12:1,2010-01-02T08:00:00Z,26.4966,-82.1479,2.398,33.31,1111122 
SCCF RECON,ioos:station:SCCF:12:1,2010-01-02T09:00:00Z,26.4966,-82.1479,2.286,33.37,1111122 
SCCF RECON,ioos:station:SCCF:12:1,2010-01-02T10:00:00Z,26.4966,-82.1479,2.13,33.14,1111122 
SCCF RECON,ioos:station:SCCF:12:1,2010-01-02T11:00:00Z,26.4966,-82.1479,1.992,33.23,1111122 
SCCF RECON,ioos:station:SCCF:12:1,2010-01-02T12:00:00Z,26.4966,-82.1479,1.857,33.28,1111122 
SCCF RECON,ioos:station:SCCF:12:1,2010-01-02T13:00:00Z,26.4966,-82.1479,1.747,33.53,1111122 
SCCF RECON,ioos:station:SCCF:12:1,2010-01-02T14:00:00Z,26.4966,-82.1479,1.644,34.2,1111122 
SCCF RECON,ioos:station:SCCF:12:1,2010-01-02T15:00:00Z,26.4966,-82.1479,1.593,33.77,1111122 
SCCF RECON,ioos:station:SCCF:12:1,2010-01-02T16:00:00Z,26.4966,-82.1479,1.718,33.94,1111122 
SCCF RECON,ioos:station:SCCF:12:1,2010-01-02T17:00:00Z,26.4966,-82.1479,1.909,34.05,1111122 
SCCF RECON,ioos:station:SCCF:12:1,2010-01-02T18:00:00Z,26.4966,-82.1479,2.046,33.88,1111122 
SCCF RECON,ioos:station:SCCF:12:1,2010-01-02T19:00:00Z,26.4966,-82.1479,2.161,33.79,1111122 
SCCF RECON,ioos:station:SCCF:12:1,2010-01-02T20:00:00Z,26.4966,-82.1479,2.227,33.76,1111122 
SCCF RECON,ioos:station:SCCF:12:1,2010-01-02T21:00:00Z,26.4966,-82.1479,2.23,33.82,1111122 
SCCF RECON,ioos:station:SCCF:12:1,2010-01-02T22:00:00Z,26.4966,-82.1479,2.188,33.78,1111122 
SCCF RECON,ioos:station:SCCF:12:1,2010-01-02T23:00:00Z,26.4966,-82.1479,2.12,33.69,1111122 
SCCF RECON,ioos:station:SCCF:12:1,2010-01-03T00:00:00Z,26.4966,-82.1479,2.098,33.75,1111122 
SCCF RECON,ioos:station:SCCF:12:1,2010-01-03T01:00:00Z,26.4966,-82.1479,2.122,33.76,1111122 
SCCF RECON,ioos:station:SCCF:12:1,2010-01-03T02:00:00Z,26.4966,-82.1479,2.17,33.78,1111122 
SCCF RECON,ioos:station:SCCF:12:1,2010-01-03T03:00:00Z,26.4966,-82.1479,2.26,33.79,1111122 
SCCF RECON,ioos:station:SCCF:12:1,2010-01-03T04:00:00Z,26.4966,-82.1479,2.408,33.82,1111122 
SCCF RECON,ioos:station:SCCF:12:1,2010-01-03T05:00:00Z,26.4966,-82.1479,2.533,33.98,1111122 
SCCF RECON,ioos:station:SCCF:12:1,2010-01-03T06:00:00Z,26.4966,-82.1479,2.604,34.04,1111122 
SCCF RECON,ioos:station:SCCF:12:1,2010-01-03T07:00:00Z,26.4966,-82.1479,2.602,34.07,1111122 
SCCF RECON,ioos:station:SCCF:12:1,2010-01-03T08:00:00Z,26.4966,-82.1479,2.53,34.08,1111122 
SCCF RECON,ioos:station:SCCF:12:1,2010-01-03T09:00:00Z,26.4966,-82.1479,2.423,34.05,1111122 
SCCF RECON,ioos:station:SCCF:12:1,2010-01-03T10:00:00Z,26.4966,-82.1479,2.28,33.98,1111122 
SCCF RECON,ioos:station:SCCF:12:1,2010-01-03T11:00:00Z,26.4966,-82.1479,2.143,33.98,1111122 
SCCF RECON,ioos:station:SCCF:12:1,2010-01-03T12:00:00Z,26.4966,-82.1479,2.016,34.01,1111122 
SCCF RECON,ioos:station:SCCF:12:1,2010-01-03T13:00:00Z,26.4966,-82.1479,1.897,34.29,1111122 
SCCF RECON,ioos:station:SCCF:12:1,2010-01-03T14:00:00Z,26.4966,-82.1479,1.8,34.33,1111122 
SCCF RECON,ioos:station:SCCF:12:1,2010-01-03T15:00:00Z,26.4966,-82.1479,1.755,34.34,1111122 
SCCF RECON,ioos:station:SCCF:12:1,2010-01-03T16:00:00Z,26.4966,-82.1479,1.811,34.33,1111122 
SCCF RECON,ioos:station:SCCF:12:1,2010-01-03T17:00:00Z,26.4966,-82.1479,1.985,34.25,1111122 
SCCF RECON,ioos:station:SCCF:12:1,2010-01-03T18:00:00Z,26.4966,-82.1479,2.11,34.22,1111122 
SCCF RECON,ioos:station:SCCF:12:1,2010-01-03T19:00:00Z,26.4966,-82.1479,2.21,34.21,1111122 
SCCF RECON,ioos:station:SCCF:12:1,2010-01-03T20:00:00Z,26.4966,-82.1479,2.3,34.14,1111122 
SCCF RECON,ioos:station:SCCF:12:1,2010-01-03T21:00:00Z,26.4966,-82.1479,2.329,34.21,1111122 
SCCF RECON,ioos:station:SCCF:12:1,2010-01-03T22:00:00Z,26.4966,-82.1479,2.266,34.31,1111122 
SCCF RECON,ioos:station:SCCF:12:1,2010-01-03T23:00:00Z,26.4966,-82.1479,2.156,34.3,1111122 
SCCF RECON,ioos:station:SCCF:12:1,2010-01-04T00:00:00Z,26.4966,-82.1479,2.069,34.39,1111122 
SCCF RECON,ioos:station:SCCF:12:1,2010-01-04T01:00:00Z,26.4966,-82.1479,2.026,34.32,1111122 
SCCF RECON,ioos:station:SCCF:12:1,2010-01-04T02:00:00Z,26.4966,-82.1479,2.024,34.32,1111122 
SCCF RECON,ioos:station:SCCF:12:1,2010-01-04T03:00:00Z,26.4966,-82.1479,2.111,34.2,1111122 
SCCF RECON,ioos:station:SCCF:12:1,2010-01-04T04:00:00Z,26.4966,-82.1479,2.235,34.17,1111122 
SCCF RECON,ioos:station:SCCF:12:1,2010-01-04T05:00:00Z,26.4966,-82.1479,2.37,34.17,1111122 
SCCF RECON,ioos:station:SCCF:12:1,2010-01-04T06:00:00Z,26.4966,-82.1479,2.465,34.2,1111122 
SCCF RECON,ioos:station:SCCF:12:1,2010-01-04T07:00:00Z,26.4966,-82.1479,2.518,34.26,1111122 
SCCF RECON,ioos:station:SCCF:12:1,2010-01-04T08:00:00Z,26.4966,-82.1479,2.528,34.28,1111122 
SCCF RECON,ioos:station:SCCF:12:1,2010-01-04T09:00:00Z,26.4966,-82.1479,2.49,34.25,1111122 
SCCF RECON,ioos:station:SCCF:12:1,2010-01-04T10:00:00Z,26.4966,-82.1479,2.391,34.18,1111122 
SCCF RECON,ioos:station:SCCF:12:1,2010-01-04T11:00:00Z,26.4966,-82.1479,2.26,34.17,1111122 
SCCF RECON,ioos:station:SCCF:12:1,2010-01-04T12:00:00Z,26.4966,-82.1479,2.128,34.19,1111122 
SCCF RECON,ioos:station:SCCF:12:1,2010-01-04T13:00:00Z,26.4966,-82.1479,2.019,34.26,1111122 
SCCF RECON,ioos:station:SCCF:12:1,2010-01-04T14:00:00Z,26.4966,-82.1479,1.92,34.28,1111122 
SCCF RECON,ioos:station:SCCF:12:1,2010-01-04T15:00:00Z,26.4966,-82.1479,1.851,34.36,1111122 
SCCF RECON,ioos:station:SCCF:12:1,2010-01-04T16:00:00Z,26.4966,-82.1479,1.86,34.36,1111122 
SCCF RECON,ioos:station:SCCF:12:1,2010-01-04T17:00:00Z,26.4966,-82.1479,2.0,34.25,1111122 
SCCF RECON,ioos:station:SCCF:12:1,2010-01-04T18:00:00Z,26.4966,-82.1479,2.14,34.17,1111122 
SCCF RECON,ioos:station:SCCF:12:1,2010-01-04T19:00:00Z,26.4966,-82.1479,2.27,34.15,1111122 
SCCF RECON,ioos:station:SCCF:12:1,2010-01-04T20:00:00Z,26.4966,-82.1479,2.374,34.19,1111122 
SCCF RECON,ioos:station:SCCF:12:1,2010-01-04T21:00:00Z,26.4966,-82.1479,2.45,34.22,1111122 
SCCF RECON,ioos:station:SCCF:12:1,2010-01-04T22:00:00Z,26.4966,-82.1479,2.442,34.21,1111122 
SCCF RECON,ioos:station:SCCF:12:1,2010-01-04T23:00:00Z,26.4966,-82.1479,2.361,34.27,1111122 
SCCF RECON,ioos:station:SCCF:12:1,2010-01-05T00:00:00Z,26.4966,-82.1479,2.259,34.26,1111122 
SCCF RECON,ioos:station:SCCF:12:1,2010-01-05T01:00:00Z,26.4966,-82.1479,2.171,34.26,1111122 
SCCF RECON,ioos:station:SCCF:12:1,2010-01-05T02:00:00Z,26.4966,-82.1479,2.129,34.32,1111122 
SCCF RECON,ioos:station:SCCF:12:1,2010-01-05T03:00:00Z,26.4966,-82.1479,2.09,34.27,1111122 
SCCF RECON,ioos:station:SCCF:12:1,2010-01-05T04:00:00Z,26.4966,-82.1479,2.12,34.18,1111122 
SCCF RECON,ioos:station:SCCF:12:1,2010-01-05T05:00:00Z,26.4966,-82.1479,2.21,34.06,1111122 
SCCF RECON,ioos:station:SCCF:12:1,2010-01-05T06:00:00Z,26.4966,-82.1479,2.336,33.92,1111122 
SCCF RECON,ioos:station:SCCF:12:1,2010-01-05T07:00:00Z,26.4966,-82.1479,2.43,34.02,1111122 
SCCF RECON,ioos:station:SCCF:12:1,2010-01-05T08:00:00Z,26.4966,-82.1479,2.489,33.98,1111122 
SCCF RECON,ioos:station:SCCF:12:1,2010-01-05T09:00:00Z,26.4966,-82.1479,2.49,33.94,1111122 
SCCF RECON,ioos:station:SCCF:12:1,2010-01-05T10:00:00Z,26.4966,-82.1479,2.45,34.02,1111122 
SCCF RECON,ioos:station:SCCF:12:1,2010-01-05T11:00:00Z,26.4966,-82.1479,2.36,34.09,1111122 
SCCF RECON,ioos:station:SCCF:12:1,2010-01-05T12:00:00Z,26.4966,-82.1479,2.25,34.2,1111122 
SCCF RECON,ioos:station:SCCF:12:1,2010-01-05T13:00:00Z,26.4966,-82.1479,2.143,34.21,1111122 
SCCF RECON,ioos:station:SCCF:12:1,2010-01-05T14:00:00Z,26.4966,-82.1479,2.036,34.21,1111122 
SCCF RECON,ioos:station:SCCF:12:1,2010-01-05T15:00:00Z,26.4966,-82.1479,1.958,34.19,1111122 
SCCF RECON,ioos:station:SCCF:12:1,2010-01-05T16:00:00Z,26.4966,-82.1479,1.91,34.08,1111122 
SCCF RECON,ioos:station:SCCF:12:1,2010-01-05T17:00:00Z,26.4966,-82.1479,1.92,34.01,1111122 
SCCF RECON,ioos:station:SCCF:12:1,2010-01-05T18:00:00Z,26.4966,-82.1479,2.021,33.98,1111122 
SCCF RECON,ioos:station:SCCF:12:1,2010-01-05T19:00:00Z,26.4966,-82.1479,2.158,33.96,1111122 
SCCF RECON,ioos:station:SCCF:12:1,2010-01-05T20:00:00Z,26.4966,-82.1479,2.274,33.91,1111122 
SCCF RECON,ioos:station:SCCF:12:1,2010-01-05T21:00:00Z,26.4966,-82.1479,2.332,33.99,1111122 
SCCF RECON,ioos:station:SCCF:12:1,2010-01-05T22:00:00Z,26.4966,-82.1479,2.326,34.01,1111122 
SCCF RECON,ioos:station:SCCF:12:1,2010-01-05T23:00:00Z,26.4966,-82.1479,2.271,34.0,1111122 
SCCF RECON,ioos:station:SCCF:12:1,2010-01-06T00:00:00Z,26.4966,-82.1479,2.205,34.03,1111122 
SCCF RECON,ioos:station:SCCF:12:1,2010-01-06T01:00:00Z,26.4966,-82.1479,2.115,34.08,1111122 
SCCF RECON,ioos:station:SCCF:12:1,2010-01-06T02:00:00Z,26.4966,-82.1479,2.03,34.14,1111122 
SCCF RECON,ioos:station:SCCF:12:1,2010-01-06T03:00:00Z,26.4966,-82.1479,1.978,34.2,1111122 
SCCF RECON,ioos:station:SCCF:12:1,2010-01-06T04:00:00Z,26.4966,-82.1479,1.95,34.06,1111122 
SCCF RECON,ioos:station:SCCF:12:1,2010-01-06T05:00:00Z,26.4966,-82.1479,1.95,33.99,1111122 
SCCF RECON,ioos:station:SCCF:12:1,2010-01-06T06:00:00Z,26.4966,-82.1479,2.0,33.9,1111122 
SCCF RECON,ioos:station:SCCF:12:1,2010-01-06T07:00:00Z,26.4966,-82.1479,2.09,33.76,1111122 
SCCF RECON,ioos:station:SCCF:12:1,2010-01-06T08:00:00Z,26.4966,-82.1479,2.18,33.78,1111122 
SCCF RECON,ioos:station:SCCF:12:1,2010-01-06T09:00:00Z,26.4966,-82.1479,2.25,33.85,1111122 
SCCF RECON,ioos:station:SCCF:12:1,2010-01-06T10:00:00Z,26.4966,-82.1479,2.29,33.69,1111122 
SCCF RECON,ioos:station:SCCF:12:1,2010-01-06T11:00:00Z,26.4966,-82.1479,2.27,33.76,1111122 
SCCF RECON,ioos:station:SCCF:12:1,2010-01-06T12:00:00Z,26.4966,-82.1479,2.23,34.05,1111122 
SCCF RECON,ioos:station:SCCF:12:1,2010-01-06T13:00:00Z,26.4966,-82.1479,2.15,34.1,1111122 
SCCF RECON,ioos:station:SCCF:12:1,2010-01-06T14:00:00Z,26.4966,-82.1479,2.081,34.11,1111122 
SCCF RECON,ioos:station:SCCF:12:1,2010-01-06T15:00:00Z,26.4966,-82.1479,2.01,33.97,1111122 
SCCF RECON,ioos:station:SCCF:12:1,2010-01-06T16:00:00Z,26.4966,-82.1479,1.978,33.97,1111122 
SCCF RECON,ioos:station:SCCF:12:1,2010-01-06T17:00:00Z,26.4966,-82.1479,1.978,33.9,1111122 
SCCF RECON,ioos:station:SCCF:12:1,2010-01-06T18:00:00Z,26.4966,-82.1479,2.026,33.83,1111122 
SCCF RECON,ioos:station:SCCF:12:1,2010-01-06T19:00:00Z,26.4966,-82.1479,2.13,33.79,1111122 
SCCF RECON,ioos:station:SCCF:12:1,2010-01-06T20:00:00Z,26.4966,-82.1479,2.238,33.8,1111122 
SCCF RECON,ioos:station:SCCF:12:1,2010-01-06T21:00:00Z,26.4966,-82.1479,2.327,33.81,1111122 
SCCF RECON,ioos:station:SCCF:12:1,2010-01-06T22:00:00Z,26.4966,-82.1479,2.378,33.83,1111122 
SCCF RECON,ioos:station:SCCF:12:1,2010-01-06T23:00:00Z,26.4966,-82.1479,2.383,33.83,1111122 
SCCF RECON,ioos:station:SCCF:12:1,2010-01-07T00:00:00Z,26.4966,-82.1479,2.329,33.83,1111122 
SCCF RECON,ioos:station:SCCF:12:1,2010-01-07T01:00:00Z,26.4966,-82.1479,2.236,33.83,1111122 
SCCF RECON,ioos:station:SCCF:12:1,2010-01-07T02:00:00Z,26.4966,-82.1479,2.149,33.87,1111122 
SCCF RECON,ioos:station:SCCF:12:1,2010-01-07T03:00:00Z,26.4966,-82.1479,2.064,33.91,1111122 
SCCF RECON,ioos:station:SCCF:12:1,2010-01-07T04:00:00Z,26.4966,-82.1479,2.005,34.0,1111122 
SCCF RECON,ioos:station:SCCF:12:1,2010-01-07T05:00:00Z,26.4966,-82.1479,1.97,34.08,1111122 
SCCF RECON,ioos:station:SCCF:12:1,2010-01-07T06:00:00Z,26.4966,-82.1479,1.96,34.09,1111122 
SCCF RECON,ioos:station:SCCF:12:1,2010-01-07T07:00:00Z,26.4966,-82.1479,1.982,33.99,1111122 
SCCF RECON,ioos:station:SCCF:12:1,2010-01-07T08:00:00Z,26.4966,-82.1479,2.05,33.76,1111122 
SCCF RECON,ioos:station:SCCF:12:1,2010-01-07T09:00:00Z,26.4966,-82.1479,2.13,33.57,1111122 
SCCF RECON,ioos:station:SCCF:12:1,2010-01-07T10:00:00Z,26.4966,-82.1479,2.2,33.62,1111122 
SCCF RECON,ioos:station:SCCF:12:1,2010-01-07T11:00:00Z,26.4966,-82.1479,2.25,33.6,1111122 
SCCF RECON,ioos:station:SCCF:12:1,2010-01-07T12:00:00Z,26.4966,-82.1479,2.25,33.68,1111122 
SCCF RECON,ioos:station:SCCF:12:1,2010-01-07T13:00:00Z,26.4966,-82.1479,2.223,33.85,1111122 
SCCF RECON,ioos:station:SCCF:12:1,2010-01-07T14:00:00Z,26.4966,-82.1479,2.18,33.9,1111122 
SCCF RECON,ioos:station:SCCF:12:1,2010-01-07T15:00:00Z,26.4966,-82.1479,2.139,33.95,1111122 
SCCF RECON,ioos:station:SCCF:12:1,2010-01-07T16:00:00Z,26.4966,-82.1479,2.073,33.95,1111122 
SCCF RECON,ioos:station:SCCF:12:1,2010-01-07T17:00:00Z,26.4966,-82.1479,2.11,33.94,1111122 
SCCF RECON,ioos:station:SCCF:12:1,2010-01-07T18:00:00Z,26.4966,-82.1479,2.158,33.88,1111122 
SCCF RECON,ioos:station:SCCF:12:1,2010-01-07T19:00:00Z,26.4966,-82.1479,2.23,33.85,1111122 
SCCF RECON,ioos:station:SCCF:12:1,2010-01-07T20:00:00Z,26.4966,-82.1479,2.337,33.83,1111122 
SCCF RECON,ioos:station:SCCF:12:1,2010-01-07T21:00:00Z,26.4966,-82.1479,2.432,33.86,1111122 
SCCF RECON,ioos:station:SCCF:12:1,2010-01-07T22:00:00Z,26.4966,-82.1479,2.49,34.03,1111122 
SCCF RECON,ioos:station:SCCF:12:1,2010-01-07T23:00:00Z,26.4966,-82.1479,2.5,34.05,1111122 
SCCF RECON,ioos:station:SCCF:12:1,2010-01-08T00:00:00Z,26.4966,-82.1479,2.49,34.04,1111122 
SCCF RECON,ioos:station:SCCF:12:1,2010-01-08T01:00:00Z,26.4966,-82.1479,2.42,33.99,1111122 
SCCF RECON,ioos:station:SCCF:12:1,2010-01-08T02:00:00Z,26.4966,-82.1479,2.34,33.9,1111122 
SCCF RECON,ioos:station:SCCF:12:1,2010-01-08T03:00:00Z,26.4966,-82.1479,2.24,33.82,1111122 
SCCF RECON,ioos:station:SCCF:12:1,2010-01-08T04:00:00Z,26.4966,-82.1479,2.144,34.08,1111122 
SCCF RECON,ioos:station:SCCF:12:1,2010-01-08T05:00:00Z,26.4966,-82.1479,2.06,34.05,1111122 
SCCF RECON,ioos:station:SCCF:12:1,2010-01-08T06:00:00Z,26.4966,-82.1479,1.979,33.97,1111122 
SCCF RECON,ioos:station:SCCF:12:1,2010-01-08T07:00:00Z,26.4966,-82.1479,1.92,33.9,1111122 
SCCF RECON,ioos:station:SCCF:12:1,2010-01-08T08:00:00Z,26.4966,-82.1479,1.946,33.89,1111122 
SCCF RECON,ioos:station:SCCF:12:1,2010-01-08T09:00:00Z,26.4966,-82.1479,2.059,33.83,1111122 
SCCF RECON,ioos:station:SCCF:12:1,2010-01-08T10:00:00Z,26.4966,-82.1479,2.14,33.83,1111122 
SCCF RECON,ioos:station:SCCF:12:1,2010-01-08T11:00:00Z,26.4966,-82.1479,2.21,33.82,1111122 
SCCF RECON,ioos:station:SCCF:12:1,2010-01-08T12:00:00Z,26.4966,-82.1479,2.25,33.87,1111122 
SCCF RECON,ioos:station:SCCF:12:1,2010-01-08T13:00:00Z,26.4966,-82.1479,2.29,33.96,1111122 
SCCF RECON,ioos:station:SCCF:12:1,2010-01-08T14:00:00Z,26.4966,-82.1479,2.29,33.99,1111122 
SCCF RECON,ioos:station:SCCF:12:1,2010-01-08T15:00:00Z,26.4966,-82.1479,2.26,33.91,1111122 
SCCF RECON,ioos:station:SCCF:12:1,2010-01-08T16:00:00Z,26.4966,-82.1479,2.29,33.84,1111122 
SCCF RECON,ioos:station:SCCF:12:1,2010-01-08T17:00:00Z,26.4966,-82.1479,2.293,33.8,1111122 
SCCF RECON,ioos:station:SCCF:12:1,2010-01-08T18:00:00Z,26.4966,-82.1479,2.287,33.79,1111122 
SCCF RECON,ioos:station:SCCF:12:1,2010-01-08T19:00:00Z,26.4966,-82.1479,2.3,33.75,1111122 
SCCF RECON,ioos:station:SCCF:12:1,2010-01-08T20:00:00Z,26.4966,-82.1479,2.37,33.77,1111122 
SCCF RECON,ioos:station:SCCF:12:1,2010-01-08T21:00:00Z,26.4966,-82.1479,2.47,33.79,1111122 
SCCF RECON,ioos:station:SCCF:12:1,2010-01-08T22:00:00Z,26.4966,-82.1479,2.56,33.82,1111122 
SCCF RECON,ioos:station:SCCF:12:1,2010-01-08T23:00:00Z,26.4966,-82.1479,2.59,33.78,1111122 
SCCF RECON,ioos:station:SCCF:12:1,2010-01-09T00:00:00Z,26.4966,-82.1479,2.57,33.77,1111122 
SCCF RECON,ioos:station:SCCF:12:1,2010-01-09T01:00:00Z,26.4966,-82.1479,2.5,33.74,1111122 
SCCF RECON,ioos:station:SCCF:12:1,2010-01-09T02:00:00Z,26.4966,-82.1479,2.417,33.74,1111122 
SCCF RECON,ioos:station:SCCF:12:1,2010-01-09T03:00:00Z,26.4966,-82.1479,2.318,33.75,1111122 
SCCF RECON,ioos:station:SCCF:12:1,2010-01-09T04:00:00Z,26.4966,-82.1479,2.239,33.78,1111122 
SCCF RECON,ioos:station:SCCF:12:1,2010-01-09T05:00:00Z,26.4966,-82.1479,2.14,33.81,1111122 
SCCF RECON,ioos:station:SCCF:12:1,2010-01-09T06:00:00Z,26.4966,-82.1479,2.049,33.81,1111122 
SCCF RECON,ioos:station:SCCF:12:1,2010-01-09T07:00:00Z,26.4966,-82.1479,1.95,33.83,1111122 
SCCF RECON,ioos:station:SCCF:12:1,2010-01-09T08:00:00Z,26.4966,-82.1479,1.869,33.84,1111122 
SCCF RECON,ioos:station:SCCF:12:1,2010-01-09T09:00:00Z,26.4966,-82.1479,1.823,33.89,1111122 
SCCF RECON,ioos:station:SCCF:12:1,2010-01-09T10:00:00Z,26.4966,-82.1479,1.845,33.89,1111122 
SCCF RECON,ioos:station:SCCF:12:1,2010-01-09T11:00:00Z,26.4966,-82.1479,1.899,33.88,1111122 
SCCF RECON,ioos:station:SCCF:12:1,2010-01-09T12:00:00Z,26.4966,-82.1479,1.929,33.79,1111122 
SCCF RECON,ioos:station:SCCF:12:1,2010-01-09T13:00:00Z,26.4966,-82.1479,1.953,33.77,1111122 
SCCF RECON,ioos:station:SCCF:12:1,2010-01-09T14:00:00Z,26.4966,-82.1479,1.988,33.73,1111122 
SCCF RECON,ioos:station:SCCF:12:1,2010-01-09T15:00:00Z,26.4966,-82.1479,2.032,33.72,1111122 
SCCF RECON,ioos:station:SCCF:12:1,2010-01-09T16:00:00Z,26.4966,-82.1479,2.041,33.66,1111122 
SCCF RECON,ioos:station:SCCF:12:1,2010-01-09T17:00:00Z,26.4966,-82.1479,2.05,33.55,1111122 
SCCF RECON,ioos:station:SCCF:12:1,2010-01-09T18:00:00Z,26.4966,-82.1479,2.05,33.42,1111122 
SCCF RECON,ioos:station:SCCF:12:1,2010-01-09T19:00:00Z,26.4966,-82.1479,2.042,33.28,1111122 
SCCF RECON,ioos:station:SCCF:12:1,2010-01-09T20:00:00Z,26.4966,-82.1479,2.059,33.17,1111122 
SCCF RECON,ioos:station:SCCF:12:1,2010-01-09T21:00:00Z,26.4966,-82.1479,2.08,33.16,1111122 
SCCF RECON,ioos:station:SCCF:12:1,2010-01-09T22:00:00Z,26.4966,-82.1479,2.159,33.26,1111122 
SCCF RECON,ioos:station:SCCF:12:1,2010-01-09T23:00:00Z,26.4966,-82.1479,2.269,33.31,1111122 
SCCF RECON,ioos:station:SCCF:12:1,2010-01-10T00:00:00Z,26.4966,-82.1479,2.341,33.37,1111122 
SCCF RECON,ioos:station:SCCF:12:1,2010-01-10T01:00:00Z,26.4966,-82.1479,2.354,33.4,1111122 
SCCF RECON,ioos:station:SCCF:12:1,2010-01-10T02:00:00Z,26.4966,-82.1479,2.324,33.4,1111122 
SCCF RECON,ioos:station:SCCF:12:1,2010-01-10T03:00:00Z,26.4966,-82.1479,2.276,33.42,1111122 
SCCF RECON,ioos:station:SCCF:12:1,2010-01-10T04:00:00Z,26.4966,-82.1479,2.196,33.48,1111122 
SCCF RECON,ioos:station:SCCF:12:1,2010-01-10T05:00:00Z,26.4966,-82.1479,2.116,33.54,1111122 
SCCF RECON,ioos:station:SCCF:12:1,2010-01-10T06:00:00Z,26.4966,-82.1479,2.037,33.72,1111122 
SCCF RECON,ioos:station:SCCF:12:1,2010-01-10T07:00:00Z,26.4966,-82.1479,1.942,33.64,1111122 
SCCF RECON,ioos:station:SCCF:12:1,2010-01-10T08:00:00Z,26.4966,-82.1479,1.846,33.78,1111122 
SCCF RECON,ioos:station:SCCF:12:1,2010-01-10T09:00:00Z,26.4966,-82.1479,1.778,33.8,1111122 
SCCF RECON,ioos:station:SCCF:12:1,2010-01-10T10:00:00Z,26.4966,-82.1479,1.719,33.79,1111122 
SCCF RECON,ioos:station:SCCF:12:1,2010-01-10T11:00:00Z,26.4966,-82.1479,1.72,33.78,1111122 
SCCF RECON,ioos:station:SCCF:12:1,2010-01-10T12:00:00Z,26.4966,-82.1479,1.77,33.46,1111122 
SCCF RECON,ioos:station:SCCF:12:1,2010-01-10T13:00:00Z,26.4966,-82.1479,1.813,33.55,1111122 
SCCF RECON,ioos:station:SCCF:12:1,2010-01-10T14:00:00Z,26.4966,-82.1479,1.923,33.69,1111122 
SCCF RECON,ioos:station:SCCF:12:1,2010-01-10T15:00:00Z,26.4966,-82.1479,1.975,33.73,1111122 
SCCF RECON,ioos:station:SCCF:12:1,2010-01-10T16:00:00Z,26.4966,-82.1479,1.998,33.66,1111122 
SCCF RECON,ioos:station:SCCF:12:1,2010-01-10T17:00:00Z,26.4966,-82.1479,1.977,33.7,1111122 
SCCF RECON,ioos:station:SCCF:12:1,2010-01-10T18:00:00Z,26.4966,-82.1479,1.974,33.77,1111122 
SCCF RECON,ioos:station:SCCF:12:1,2010-01-10T19:00:00Z,26.4966,-82.1479,1.975,33.82,1111122 
SCCF RECON,ioos:station:SCCF:12:1,2010-01-10T20:00:00Z,26.4966,-82.1479,1.963,33.76,1111122 
SCCF RECON,ioos:station:SCCF:12:1,2010-01-10T21:00:00Z,26.4966,-82.1479,1.989,33.8,1111122 
SCCF RECON,ioos:station:SCCF:12:1,2010-01-10T22:00:00Z,26.4966,-82.1479,2.058,33.69,1111122 
SCCF RECON,ioos:station:SCCF:12:1,2010-01-10T23:00:00Z,26.4966,-82.1479,2.14,33.26,1111122 
SCCF RECON,ioos:station:SCCF:12:1,2010-01-11T00:00:00Z,26.4966,-82.1479,2.25,33.38,1111122 
SCCF RECON,ioos:station:SCCF:12:1,2010-01-11T01:00:00Z,26.4966,-82.1479,2.351,33.39,1111122 
SCCF RECON,ioos:station:SCCF:12:1,2010-01-11T02:00:00Z,26.4966,-82.1479,2.355,33.6,1111122 
SCCF RECON,ioos:station:SCCF:12:1,2010-01-11T03:00:00Z,26.4966,-82.1479,2.314,33.78,1111122 
SCCF RECON,ioos:station:SCCF:12:1,2010-01-11T04:00:00Z,26.4966,-82.1479,2.25,34.1,1111122 
SCCF RECON,ioos:station:SCCF:12:1,2010-01-11T05:00:00Z,26.4966,-82.1479,2.147,34.27,1111122 
SCCF RECON,ioos:station:SCCF:12:1,2010-01-11T06:00:00Z,26.4966,-82.1479,2.034,34.26,1111122 
SCCF RECON,ioos:station:SCCF:12:1,2010-01-11T07:00:00Z,26.4966,-82.1479,1.91,34.26,1111122 
SCCF RECON,ioos:station:SCCF:12:1,2010-01-11T08:00:00Z,26.4966,-82.1479,1.809,34.0,1111122 
SCCF RECON,ioos:station:SCCF:12:1,2010-01-11T09:00:00Z,26.4966,-82.1479,1.722,34.02,1111122 
SCCF RECON,ioos:station:SCCF:12:1,2010-01-11T10:00:00Z,26.4966,-82.1479,1.663,33.8,1111122 
SCCF RECON,ioos:station:SCCF:12:1,2010-01-11T11:00:00Z,26.4966,-82.1479,1.66,33.46,1111122 
SCCF RECON,ioos:station:SCCF:12:1,2010-01-11T12:00:00Z,26.4966,-82.1479,1.727,33.4,1111122 
SCCF RECON,ioos:station:SCCF:12:1,2010-01-11T13:00:00Z,26.4966,-82.1479,1.84,33.39,1111122 
SCCF RECON,ioos:station:SCCF:12:1,2010-01-11T14:00:00Z,26.4966,-82.1479,1.949,33.08,1111122 
SCCF RECON,ioos:station:SCCF:12:1,2010-01-11T15:00:00Z,26.4966,-82.1479,2.049,32.93,1111122 
SCCF RECON,ioos:station:SCCF:12:1,2010-01-11T16:00:00Z,26.4966,-82.1479,2.137,32.96,1111122 
SCCF RECON,ioos:station:SCCF:12:1,2010-01-11T17:00:00Z,26.4966,-82.1479,2.207,33.29,1111122 